User: anonymous   Login
Location: Unspecified
(0.0000°N, 0.0000°E)
Time: 19:25:16
(UTC+00:00)
Language:

YAOGAN-41 - Orbit

View from above orbital plane
View from above orbital plane
View from above satellite
View from above satellite

Ground track
Ground track

The orbit is defined by the following mean orbital elements,

1 58582U          26145.60814612 +.00000000 +00000-0 +00000-0 0 00007
2 58582   3.1691 312.8142 0013571 188.6605  83.8500  1.00270969    00
Epoch (UTC): 25 May 2026 14:35:43
Eccentricity: 0.0013571
inclination: 3.1691°
perigee height: 35730 km
apogee height: 35844 km
right ascension of ascending node: 312.8142°
argument of perigee: 188.6605°
revolutions per day: 1.00270969
mean anomaly at epoch: 83.8500°

The dashed part of the orbit path shows where the satellite is in the earth's shadow,  

DLR